| time (UTC) | temp C | wind direction | speed KPH | gust KPH | rain 1hr cm | rain 24hr cm | rain mn cm | humidity % | barometer mb |
| 20260503071507 | 7 | 234 | 0.0 | 0.0 | 0.00 | 0.00 | 0.00 | 87 | 930.9 |
| 20260503071006 | 7 | 28 | 0.0 | 0.0 | 0.00 | 0.00 | 0.00 | 87 | 930.9 |
| 20260503070505 | 7 | 39 | 0.0 | 0.0 | 0.00 | 0.00 | 0.00 | 87 | 930.9 |
| 20260503055007 | 9 | 41 | 0.0 | 0.0 | 0.00 | 0.00 | 0.00 | 84 | 930.7 |
| 20260503054506 | 9 | 38 | 0.0 | 0.0 | 0.00 | 0.00 | 0.00 | 84 | 930.7 |
| 20260503054005 | 9 | 337 | 0.0 | 0.0 | 0.00 | 0.00 | 0.00 | 84 | 930.7 |
| 20260503053504 | 9 | 20 | 0.0 | 0.0 | 0.00 | 0.00 | 0.00 | 84 | 930.7 |
| 20260503053003 | 10 | 1 | 0.0 | 0.0 | 0.00 | 0.00 | 0.00 | 84 | 930.7 |
| 20260503052507 | 10 | 31 | 0.0 | 0.0 | 0.00 | 0.00 | 0.00 | 84 | 930.7 |
| 20260503052007 | 10 | 13 | 0.0 | 0.0 | 0.00 | 0.00 | 0.00 | 83 | 930.7 |
| 20260503051506 | 10 | 334 | 0.0 | 0.0 | 0.00 | 0.00 | 0.00 | 83 | 930.7 |
| 20260503051005 | 10 | 143 | 0.0 | 0.0 | 0.00 | 0.00 | 0.00 | 83 | 930.7 |
| 20260503050504 | 10 | 2 | 0.0 | 0.0 | 0.00 | 0.00 | 0.00 | 82 | 930.6 |
| 20260503050003 | 10 | 330 | 1.6 | 0.0 | 0.00 | 0.00 | 0.00 | 82 | 930.5 |
| 20260503045508 | 10 | 50 | 0.0 | 0.0 | 0.00 | 0.00 | 0.00 | 81 | 930.5 |
| 20260503044504 | 11 | 328 | 0.0 | 0.0 | 0.00 | 0.00 | 0.00 | 81 | 930.4 |
| 20260503043003 | 11 | 31 | 0.0 | 0.0 | 0.00 | 0.00 | 0.00 | 80 | 930.4 |
| 20260503042507 | 11 | 38 | 0.0 | 0.0 | 0.00 | 0.00 | 0.00 | 80 | 930.3 |
| 20260503042006 | 11 | 0 | 0.0 | 0.0 | 0.00 | 0.00 | 0.00 | 79 | 930.2 |
| 20260503041505 | 12 | 14 | 1.6 | 0.0 | 0.00 | 0.00 | 0.00 | 79 | 930.2 |
| 20260503041004 | 12 | 326 | 0.0 | 0.0 | 0.00 | 0.00 | 0.00 | 79 | 930.1 |
| 20260503040503 | 12 | 26 | 0.0 | 0.0 | 0.00 | 0.00 | 0.00 | 79 | 930.1 |
| 20260503040008 | 12 | 346 | 0.0 | 0.0 | 0.00 | 0.00 | 0.00 | 78 | 930.0 |
| 20260503035003 | 13 | 14 | 0.0 | 0.0 | 0.00 | 0.00 | 0.00 | 77 | 929.8 |
| 20260503034503 | 13 | 330 | 0.0 | 0.0 | 0.00 | 0.00 | 0.00 | 76 | 929.7 |
| 20260503034007 | 13 | 355 | 1.6 | 0.0 | 0.00 | 0.00 | 0.00 | 76 | 929.7 |
| 20260503033506 | 13 | 53 | 0.0 | 0.0 | 0.00 | 0.00 | 0.00 | 74 | 929.6 |
| 20260503032508 | 14 | 3 | 0.0 | 0.0 | 0.00 | 0.00 | 0.00 | 73 | 929.5 |
| 20260503032007 | 14 | 338 | 0.0 | 0.0 | 0.00 | 0.00 | 0.00 | 72 | 929.4 |
| 20260503031506 | 15 | 24 | 0.0 | 0.0 | 0.00 | 0.00 | 0.00 | 71 | 929.3 |
| 20260503031006 | 15 | 27 | 0.0 | 0.0 | 0.00 | 0.00 | 0.00 | 70 | 929.2 |
| 20260503025505 | 16 | 336 | 0.0 | 0.0 | 0.00 | 0.00 | 0.00 | 68 | 929.0 |
| 20260503025004 | 16 | 345 | 0.0 | 0.0 | 0.00 | 0.00 | 0.00 | 66 | 929.0 |
| 20260503024503 | 16 | 13 | 0.0 | 0.0 | 0.00 | 0.00 | 0.00 | 65 | 928.9 |
| 20260503024002 | 17 | 330 | 0.0 | 0.0 | 0.00 | 0.00 | 0.00 | 64 | 928.9 |
| 20260503023507 | 17 | 61 | 1.6 | 0.0 | 0.00 | 0.00 | 0.00 | 63 | 928.8 |
| 20260503023007 | 17 | 304 | 0.0 | 0.0 | 0.00 | 0.00 | 0.00 | 60 | 928.8 |
| 20260503022529 | 18 | 3 | 0.0 | 0.0 | 0.00 | 0.00 | 0.00 | 59 | 928.8 |
| 20260503022003 | 18 | 11 | 0.0 | 0.0 | 0.00 | 0.00 | 0.00 | 58 | 928.8 |
| 20260503021502 | 19 | 4 | 0.0 | 0.0 | 0.00 | 0.00 | 0.00 | 56 | 928.8 |
| 20260503021007 | 20 | 313 | 0.0 | 0.0 | 0.00 | 0.00 | 0.00 | 54 | 928.7 |
| 20260503020004 | 20 | 245 | 0.0 | 0.0 | 0.00 | 0.00 | 0.00 | 52 | 928.6 |
| 20260503015503 | 21 | 23 | 0.0 | 0.0 | 0.00 | 0.00 | 0.00 | 50 | 928.6 |
| 20260503015007 | 21 | 322 | 0.0 | 0.0 | 0.00 | 0.00 | 0.00 | 48 | 928.6 |
| 20260503014507 | 22 | 184 | 0.0 | 0.0 | 0.00 | 0.00 | 0.00 | 47 | 928.6 |
| 20260503014005 | 22 | 61 | 0.0 | 0.0 | 0.00 | 0.00 | 0.00 | 44 | 928.6 |
| 20260503013504 | 22 | 19 | 0.0 | 0.0 | 0.00 | 0.00 | 0.00 | 39 | 928.5 |
| 20260503013003 | 22 | 19 | 0.0 | 0.0 | 0.00 | 0.00 | 0.00 | 39 | 928.5 |
| 20260503012508 | 23 | 342 | 0.0 | 0.0 | 0.00 | 0.00 | 0.00 | 33 | 928.5 |
| 20260503012006 | 23 | 41 | 0.0 | 0.0 | 0.00 | 0.00 | 0.00 | 32 | 928.5 |
| 20260503011506 | 23 | 202 | 0.0 | 0.0 | 0.00 | 0.00 | 0.00 | 32 | 928.5 |
| 20260503010506 | 23 | 73 | 0.0 | 0.0 | 0.00 | 0.00 | 0.00 | 30 | 928.5 |
| 20260503010006 | 23 | 32 | 6.4 | 0.0 | 0.00 | 0.00 | 0.00 | 30 | 928.5 |
| 20260503005505 | 23 | 352 | 0.0 | 0.0 | 0.00 | 0.00 | 0.00 | 30 | 928.5 |
| 20260503005004 | 23 | 7 | 0.0 | 0.0 | 0.00 | 0.00 | 0.00 | 30 | 928.5 |
| 20260503004502 | 23 | 296 | 6.4 | 0.0 | 0.00 | 0.00 | 0.00 | 29 | 928.6 |
| 20260503004007 | 23 | 346 | 0.0 | 0.0 | 0.00 | 0.00 | 0.00 | 29 | 928.6 |
| 20260503003506 | 23 | 45 | 0.0 | 0.0 | 0.00 | 0.00 | 0.00 | 30 | 928.6 |
| 20260503003005 | 23 | 34 | 0.0 | 0.0 | 0.00 | 0.00 | 0.00 | 30 | 928.6 |
| 20260503002504 | 23 | 332 | 0.0 | 0.0 | 0.00 | 0.00 | 0.00 | 30 | 928.6 |
| 20260503002002 | 23 | 55 | 8.0 | 0.0 | 0.00 | 0.00 | 0.00 | 30 | 928.6 |
| 20260503001507 | 23 | 43 | 0.0 | 0.0 | 0.00 | 0.00 | 0.00 | 30 | 928.5 |
| 20260503000503 | 23 | 256 | 0.0 | 0.0 | 0.00 | 0.00 | 0.00 | 31 | 928.6 |
| 20260503000007 | 23 | 36 | 0.0 | 0.0 | 0.00 | 0.00 | 0.00 | 30 | 928.6 |
| 20260502235507 | 23 | 320 | 0.0 | 0.0 | 0.00 | 0.00 | 0.00 | 31 | 928.6 |
| 20260502235005 | 23 | 97 | 0.0 | 0.0 | 0.00 | 0.00 | 0.00 | 31 | 928.6 |
| 20260502234504 | 23 | 211 | 0.0 | 0.0 | 0.00 | 0.00 | 0.00 | 34 | 928.7 |
| 20260502234003 | 23 | 35 | 0.0 | 0.0 | 0.00 | 0.00 | 0.00 | 30 | 928.7 |
| 20260502233508 | 24 | 354 | 0.0 | 0.0 | 0.00 | 0.00 | 0.00 | 31 | 928.7 |
| 20260502233006 | 24 | 313 | 0.0 | 0.0 | 0.00 | 0.00 | 0.00 | 31 | 928.8 |
| 20260502232505 | 24 | 271 | 0.0 | 0.0 | 0.00 | 0.00 | 0.00 | 30 | 928.8 |
| 20260502231507 | 24 | 249 | 0.0 | 0.0 | 0.00 | 0.00 | 0.00 | 28 | 928.8 |
| 20260502231005 | 24 | 234 | 0.0 | 0.0 | 0.00 | 0.00 | 0.00 | 28 | 929.0 |
| 20260502230505 | 24 | 264 | 0.0 | 0.0 | 0.00 | 0.00 | 0.00 | 28 | 928.9 |
| 20260502230003 | 24 | 201 | 0.0 | 0.0 | 0.00 | 0.00 | 0.00 | 28 | 928.9 |
| 20260502225005 | 25 | 250 | 0.0 | 0.0 | 0.00 | 0.00 | 0.00 | 28 | 929.0 |
| 20260502224007 | 24 | 341 | 0.0 | 0.0 | 0.00 | 0.00 | 0.00 | 29 | 929.0 |
| 20260502223506 | 24 | 282 | 0.0 | 0.0 | 0.00 | 0.00 | 0.00 | 30 | 929.1 |
| 20260502223005 | 24 | 346 | 0.0 | 0.0 | 0.00 | 0.00 | 0.00 | 29 | 929.2 |
| 20260502221504 | 24 | 297 | 0.0 | 0.0 | 0.00 | 0.00 | 0.00 | 29 | 929.4 |
| 20260502221003 | 24 | 12 | 8.0 | 0.0 | 0.00 | 0.00 | 0.00 | 30 | 929.4 |
| 20260502220507 | 24 | 76 | 0.0 | 0.0 | 0.00 | 0.00 | 0.00 | 29 | 929.4 |
| 20260502220006 | 24 | 3 | 0.0 | 0.0 | 0.00 | 0.00 | 0.00 | 30 | 929.5 |
| 20260502215505 | 24 | 243 | 0.0 | 0.0 | 0.00 | 0.00 | 0.00 | 29 | 929.6 |
| 20260502215004 | 24 | 353 | 0.0 | 0.0 | 0.00 | 0.00 | 0.00 | 32 | 929.6 |
| 20260502214006 | 23 | 346 | 0.0 | 0.0 | 0.00 | 0.00 | 0.00 | 30 | 929.6 |
| 20260502213504 | 23 | 259 | 0.0 | 0.0 | 0.00 | 0.00 | 0.00 | 32 | 929.7 |
| 20260502213003 | 23 | 268 | 0.0 | 0.0 | 0.00 | 0.00 | 0.00 | 32 | 929.7 |
| 20260502212508 | 23 | 290 | 0.0 | 0.0 | 0.00 | 0.00 | 0.00 | 35 | 929.8 |
| 20260502212006 | 23 | 246 | 0.0 | 0.0 | 0.00 | 0.00 | 0.00 | 33 | 929.8 |
| 20260502211505 | 23 | 255 | 0.0 | 0.0 | 0.00 | 0.00 | 0.00 | 34 | 929.9 |
| 20260502210004 | 22 | 281 | 0.0 | 0.0 | 0.00 | 0.00 | 0.00 | 34 | 929.9 |
| 20260502205503 | 22 | 256 | 4.8 | 0.0 | 0.00 | 0.00 | 0.00 | 38 | 930.0 |
| 20260502205008 | 22 | 349 | 0.0 | 0.0 | 0.00 | 0.00 | 0.00 | 36 | 930.0 |
| 20260502204506 | 22 | 199 | 0.0 | 0.0 | 0.00 | 0.00 | 0.00 | 37 | 930.1 |
| 20260502203509 | 21 | 127 | 0.0 | 0.0 | 0.00 | 0.00 | 0.00 | 39 | 930.2 |
| 20260502203007 | 21 | 264 | 3.2 | 0.0 | 0.00 | 0.00 | 0.00 | 42 | 930.2 |
| 20260502202003 | 20 | 164 | 0.0 | 0.0 | 0.00 | 0.00 | 0.00 | 46 | 930.3 |
| 20260502201508 | 20 | 227 | 0.0 | 0.0 | 0.00 | 0.00 | 0.00 | 45 | 930.4 |
| 20260502200503 | 19 | 330 | 0.0 | 0.0 | 0.00 | 0.00 | 0.00 | 51 | 930.5 |
| 20260502200002 | 19 | 165 | 0.0 | 0.0 | 0.00 | 0.00 | 0.00 | 51 | 930.7 |
| 20260502195507 | 18 | 128 | 0.0 | 0.0 | 0.00 | 0.00 | 0.00 | 53 | 930.8 |
| 20260502195005 | 18 | 215 | 0.0 | 0.0 | 0.00 | 0.00 | 0.00 | 53 | 930.7 |
| 20260502194504 | 18 | 225 | 1.6 | 0.0 | 0.00 | 0.00 | 0.00 | 54 | 930.8 |
| 20260502194003 | 18 | 158 | 0.0 | 0.0 | 0.00 | 0.00 | 0.00 | 56 | 931.0 |
| 20260502193502 | 18 | 134 | 0.0 | 0.0 | 0.00 | 0.00 | 0.00 | 55 | 931.0 |
| 20260502193007 | 18 | 35 | 0.0 | 0.0 | 0.00 | 0.00 | 0.00 | 56 | 931.0 |
| 20260502192506 | 18 | 6 | 0.0 | 0.0 | 0.00 | 0.00 | 0.00 | 56 | 931.0 |
| 20260502192005 | 18 | 164 | 0.0 | 0.0 | 0.00 | 0.00 | 0.00 | 57 | 931.0 |
| 20260502191504 | 18 | 130 | 0.0 | 0.0 | 0.00 | 0.00 | 0.00 | 57 | 931.0 |
| 20260502191003 | 18 | 143 | 0.0 | 0.0 | 0.00 | 0.00 | 0.00 | 56 | 930.9 |
| 20260502190005 | 18 | 267 | 0.0 | 0.0 | 0.00 | 0.00 | 0.00 | 56 | 930.8 |
| 20260502185504 | 18 | 209 | 0.0 | 0.0 | 0.00 | 0.00 | 0.00 | 59 | 930.9 |
| 20260502185003 | 18 | 204 | 0.0 | 0.0 | 0.00 | 0.00 | 0.00 | 60 | 930.8 |
| 20260502184507 | 17 | 174 | 0.0 | 0.0 | 0.00 | 0.00 | 0.00 | 60 | 930.8 |
| 20260502184006 | 17 | 332 | 0.0 | 0.0 | 0.00 | 0.00 | 0.00 | 63 | 930.9 |
| 20260502183008 | 17 | 229 | 0.0 | 0.0 | 0.00 | 0.00 | 0.00 | 67 | 930.8 |
| 20260502182507 | 17 | 97 | 3.2 | 0.0 | 0.00 | 0.00 | 0.00 | 70 | 930.9 |